Voltar ao catálogo

SL-12 R/B(2)

AtivoMEO
NORAD 18360·ROCKET BODY·🇷🇺 Russia

Lançado Sep 16, 1987 de Baikonur Cosmodrome

Loading…

Próximas Passagens (próximas 24 horas)

TLE

AtualizadoSource: Space-Track

Época: Sep 14, 2026, 04:28 UTC

1 18360U 87079F   26257.18635332 -.00000056  00000-0  00000-0 0  9994
2 18360  65.5114 314.3050 0009576 238.6612 121.4879  2.13418365303824

Acompanhe SL-12 R/B(2) em tempo real com AllMySat

Download on the App Store